Location: Unspecified
(51.0000°N, 12.0000°E)
Time: 22:42:29
(UTC+01:00)

ISS - Pass Details

Date: 15 November 2017
Orbit: 402 x 407 km, 51.6° (Epoch: 19 November)

Event Time Altitude Azimuth Distance (km) Brightness Sun altitude
Exits shadow 06:28:09 - 253° (WSW) 1,500 -1.4 -9.5°
Reaches altitude 10° 06:28:22 10° 249° (WSW) 1,454 -1.5 -9.5°
Maximum altitude 06:29:52 13° 222° (SW) 1,302 -1.5 -9.2°
Drops below altitude 10° 06:31:23 10° 194° (SSW) 1,450 -1.0 -9.0°
Sets 06:34:20 0° 164° (SSE) 2,304 0.5 -8.6°
